Volver al catálogo

IO-86

ActivoRadioaficionadoLEO
NORAD 40931·PAYLOAD·🇮🇩 Indonesia

Lanzado Sep 28, 2015 desde Satish Dhawan Space Centre

Loading…

Próximos Pases (próximas 24 horas)

TLE

ObsoletoSource: Tim BRIN PR Teksat

Época: Aug 3, 2026, 07:32 UTC

1 40931U 00000    26215.31405093  .00000000  00000-0 -12415-2 0    07
2 40931   5.9978 192.1020 0013293 316.0159  40.6094 14.79250695 40639

Sigue IO-86 en tiempo real con AllMySat

Download on the App Store